Weather History for Jacksonville NAS, FL

Change the Weather History Date:

Wednesday, December 12, 2012

  Actual Average Record
Temperature  
Mean Temperature 60 °F -  
Max Temperature 64 °F 64 °F 75 °F (1998)
Min Temperature 57 °F 48 °F 37 °F (2010)
Degree Days  
Heating Degree Days 4    
Growing Degree Days 10 (Base 50)    
Moisture  
Dew Point 57 °F    
Average Humidity 91    
Maximum Humidity 94    
Minimum Humidity 87    
Precipitation  
Precipitation 0.92 in - - ()
Sea Level Pressure  
Sea Level Pressure 30.08 in    
Wind  
Wind Speed 10 mph (North)    
Max Wind Speed 17 mph    
Max Gust Speed -    
Visibility 6 miles    
Events Rain , Thunderstorm    
Averages and records for this station are not official NWS values.
T = Trace of Precipitation, MM = Missing Value Source: NWS Daily Summary

Daily Weather History Graph

Daily Weather History Graph

Search for Another Location

Airport:

Trip Planner

Search our weather history database for the weather conditions in past years. The results will help you decide how hot, cold, wet, or windy it might be!

Date:

Astronomy

Dec. 12, 2012 Rise Set
Actual Time 7:13 AM EST 5:27 PM EST
Civil Twilight 6:47 AM EST 5:53 PM EST
Nautical Twilight 6:17 AM EST 6:23 PM EST
Astronomical Twilight 5:48 AM EST 6:52 PM EST
Moon 6:18 AM EST (12/12) 5:01 PM EST (12/12)
Length of Visible Light 11h 06m
Length of Day
10h 13m
Waning Crescent, 1% of the Moon is Illuminated
Dec 12
Waning Crescent
Dec 13
New
Dec 20
First Quarter
Dec 28
Full
Jan 4
Last Quarter

Hourly Weather History & Observations

Time (EST) Temp. Dew Point Humidity Pressure Visibility Wind Dir Wind Speed Gust Speed Precip Events Conditions
12:53 AM 64.9 °F 61.0 °F 87% 30.04 in 9.0 mi North 9.2 mph - N/A   Mostly Cloudy
1:06 AM 64.4 °F 60.8 °F 88% 30.05 in 9.0 mi North 8.1 mph - N/A   Mostly Cloudy
1:15 AM 64.4 °F 60.8 °F 88% 30.06 in 9.0 mi NNW 9.2 mph - N/A   Overcast
1:23 AM 64.4 °F 60.8 °F 88% 30.06 in 9.0 mi North 9.2 mph - N/A   Overcast
1:53 AM 64.0 °F 60.1 °F 87% 30.05 in 6.0 mi NNW 10.4 mph - N/A   Overcast
2:02 AM 64.4 °F 60.8 °F 88% 30.07 in 5.0 mi NNW 8.1 mph - 0.00 in Rain Light Rain
2:16 AM 62.6 °F 60.8 °F 94% 30.07 in 5.0 mi NNW 13.8 mph - 0.00 in Rain Light Rain
2:53 AM 62.1 °F 60.1 °F 93% 30.04 in 5.0 mi NNW 12.7 mph - 0.00 in Rain Light Rain
3:17 AM 60.8 °F 59.0 °F 94% 30.05 in 2.0 mi NNW 13.8 mph - 0.03 in Rain Rain
3:35 AM 60.8 °F 59.0 °F 94% 30.05 in 5.0 mi NNW 17.3 mph - 0.06 in Rain Light Rain
3:53 AM 60.1 °F 57.9 °F 93% 30.03 in 5.0 mi North 17.3 mph - 0.07 in Rain Light Rain
4:53 AM 59.0 °F 57.0 °F 93% 30.03 in 6.0 mi North 16.1 mph - 0.02 in Rain Light Rain
5:12 AM 59.0 °F 57.2 °F 94% 30.05 in 6.0 mi North 13.8 mph - 0.00 in Rain , Thunderstorm Light Thunderstorms and Rain
5:53 AM 59.0 °F 57.0 °F 93% 30.05 in 5.0 mi North 10.4 mph - 0.02 in Rain Light Rain
6:02 AM 59.0 °F 57.2 °F 94% 30.06 in 6.0 mi North 10.4 mph - 0.00 in   Overcast
6:53 AM 60.1 °F 57.0 °F 90% 30.07 in 5.0 mi NNE 6.9 mph - 0.01 in Rain Rain
7:14 AM 59.0 °F 57.2 °F 94% 30.09 in 2.0 mi North 10.4 mph - 0.05 in Rain Heavy Rain
7:53 AM 57.9 °F 55.9 °F 93% 30.08 in 2.0 mi NNW 12.7 mph - 0.10 in Rain Rain
8:13 AM 57.2 °F 55.4 °F 94% 30.10 in 1.5 mi North 8.1 mph - 0.07 in Rain Heavy Rain
8:18 AM 57.2 °F 55.4 °F 94% 30.10 in 1.5 mi North 9.2 mph - 0.13 in Rain , Thunderstorm Thunderstorms and Rain
8:39 AM 57.2 °F 55.4 °F 94% 30.11 in 2.0 mi North 8.1 mph - 0.22 in Rain , Thunderstorm Thunderstorms and Rain
8:49 AM 57.2 °F 55.4 °F 94% 30.11 in 2.0 mi NNE 6.9 mph - 0.24 in Rain Light Rain
8:53 AM 57.9 °F 55.9 °F 93% 30.10 in 2.0 mi North 6.9 mph - 0.24 in Rain Light Rain
9:53 AM 59.0 °F 57.0 °F 93% 30.12 in 2.0 mi NNE 4.6 mph - 0.26 in Rain Rain
10:13 AM 59.0 °F 57.2 °F 94% 30.13 in 5.0 mi North 3.5 mph - 0.00 in Rain Light Rain
10:26 AM 60.8 °F 57.2 °F 88% 30.13 in 6.0 mi NNE 5.8 mph - 0.00 in   Overcast
10:53 AM 60.1 °F 57.0 °F 90% 30.11 in 8.0 mi NNE 6.9 mph - 0.00 in   Overcast
11:51 AM 60.8 °F 57.2 °F 88% 30.11 in 8.0 mi North 8.1 mph - N/A   Overcast
11:53 AM 61.0 °F 57.9 °F 90% 30.10 in 8.0 mi NNW 8.1 mph - N/A   Overcast
12:53 PM 61.0 °F 59.0 °F 93% 30.07 in 6.0 mi North 12.7 mph - N/A   Overcast
1:08 PM 60.8 °F 57.2 °F 88% 30.09 in 6.0 mi NNW 13.8 mph - N/A   Overcast
1:25 PM 60.8 °F 57.2 °F 88% 30.08 in 5.0 mi NNW 10.4 mph - 0.00 in Rain Light Rain
1:53 PM 59.0 °F 57.0 °F 93% 30.06 in 5.0 mi NNW 12.7 mph - 0.06 in   Overcast
2:20 PM 59.0 °F 57.2 °F 94% 30.08 in 4.0 mi North 11.5 mph - 0.05 in Rain Light Rain
2:43 PM 59.0 °F 55.4 °F 88% 30.08 in 7.0 mi North 11.5 mph - 0.05 in   Overcast
2:53 PM 59.0 °F 55.9 °F 90% 30.07 in 7.0 mi NNW 11.5 mph - 0.05 in   Overcast
3:01 PM 59.0 °F 55.4 °F 88% 30.08 in 6.0 mi NNW 11.5 mph - 0.02 in Rain Rain
3:53 PM 57.0 °F 55.0 °F 93% 30.09 in 6.0 mi NNW 6.9 mph - 0.06 in Rain Light Rain
3:59 PM 57.2 °F 55.4 °F 94% 30.10 in 6.0 mi North 8.1 mph - 0.00 in   Overcast
4:53 PM 57.9 °F 55.0 °F 90% 30.09 in 7.0 mi North 5.8 mph - 0.00 in   Overcast
5:25 PM 57.2 °F 55.4 °F 94% 30.14 in 3.0 mi WNW 8.1 mph - 0.02 in Rain Light Rain
5:53 PM 57.0 °F 55.0 °F 93% 30.11 in 6.0 mi North 8.1 mph - 0.02 in Rain Light Rain
6:07 PM 57.2 °F 55.4 °F 94% 30.12 in 8.0 mi North 10.4 mph - 0.01 in   Overcast
6:53 PM 57.9 °F 55.0 °F 90% 30.06 in 10.0 mi East 12.7 mph - 0.01 in   Overcast
7:28 PM 59.0 °F 55.4 °F 88% 30.07 in 10.0 mi NNE 9.2 mph - N/A   Overcast
7:53 PM 59.0 °F 55.9 °F 90% 30.09 in 10.0 mi NNE 8.1 mph - N/A   Overcast
8:07 PM 59.0 °F 55.4 °F 88% 30.11 in 10.0 mi NNE 6.9 mph - N/A   Overcast
8:53 PM 60.1 °F 57.0 °F 90% 30.08 in 10.0 mi ENE 6.9 mph - N/A   Overcast
9:53 PM 60.1 °F 57.9 °F 93% 30.10 in 10.0 mi ENE 5.8 mph - N/A   Overcast
10:25 PM 60.8 °F 57.2 °F 88% 30.12 in 10.0 mi North 5.8 mph - N/A   Overcast
10:53 PM 61.0 °F 57.9 °F 90% 30.11 in 10.0 mi North 5.8 mph - N/A   Overcast
11:53 PM 61.0 °F 57.9 °F 90% 30.10 in 9.0 mi NNW 10.4 mph - N/A   Overcast